QPF
0.09 0.11 0.11 0.10 0.11 0.10 0.11 0.12 0.11 0.09 0.06 0.04 0.05 0.04 0.04 0.07 0.15 0.15 0.08 0.06 0.02 0.00 0.00 0.00 0.01 0.01 0.02 0.02 0.04 0.04 0.03 0.02 0.01 0.01 0.01 0.01 0.01 0.01
0.09 0.11 0.13 0.14 0.13 0.12 0.13 0.13 0.13 0.10 0.08 0.06 0.05 0.04 0.06 0.07 0.11 0.11 0.12 0.14 0.07 0.02 0.01 0.01 0.01 0.01 0.01 0.01 0.02 0.02 0.01 0.01 0.01 0.00 0.00 0.00 0.01 0.01
0.08 0.09 0.11 0.13 0.14 0.14 0.14 0.14 0.13 0.11 0.08 0.08 0.08 0.06 0.07 0.07 0.08 0.08 0.12 0.14 0.09 0.05 0.03 0.02 0.02 0.02 0.01 0.01 0.01 0.01 0.00 0.00 0.00 0.01 0.00 0.00 0.00 0.01
0.08 0.09 0.09 0.10 0.12 0.15 0.16 0.15 0.14 0.14 0.12 0.09 0.10 0.08 0.05 0.05 0.07 0.09 0.12 0.13 0.11 0.09 0.06 0.04 0.04 0.03 0.02 0.01 0.01 0.01 0.01 0.01 0.01 0.00 0.00 0.01 0.01 0.00
0.06 0.07 0.08 0.09 0.10 0.12 0.14 0.15 0.14 0.14 0.15 0.13 0.11 0.11 0.09 0.08 0.08 0.09 0.11 0.14 0.15 0.14 0.12 0.09 0.07 0.06 0.04 0.03 0.03 0.02 0.02 0.01 0.01 0.01 0.00 0.01 0.01 0.00
0.05 0.06 0.08 0.09 0.10 0.10 0.12 0.15 0.16 0.16 0.17 0.15 0.13 0.12 0.12 0.13 0.13 0.11 0.12 0.12 0.14 0.14 0.15 0.14 0.13 0.12 0.09 0.07 0.05 0.03 0.02 0.02 0.02 0.01 0.01 0.00 0.00 0.00
0.05 0.06 0.06 0.07 0.06 0.06 0.07 0.11 0.15 0.17 0.16 0.15 0.13 0.11 0.11 0.13 0.14 0.13 0.14 0.15 0.16 0.16 0.17 0.17 0.18 0.16 0.14 0.11 0.08 0.06 0.04 0.03 0.02 0.01 0.01 0.01 0.01 0.01
0.06 0.06 0.06 0.06 0.05 0.04 0.04 0.06 0.10 0.13 0.14 0.14 0.12 0.10 0.09 0.10 0.12 0.16 0.16 0.19 0.21 0.18 0.18 0.21 0.21 0.22 0.19 0.16 0.13 0.11 0.08 0.06 0.05 0.04 0.03 0.02 0.01 0.01
0.06 0.07 0.06 0.06 0.06 0.07 0.07 0.06 0.08 0.10 0.11 0.14 0.13 0.10 0.11 0.11 0.11 0.14 0.17 0.17 0.17 0.18 0.20 0.26 0.28 0.29 0.25 0.22 0.21 0.17 0.14 0.11 0.09 0.07 0.06 0.05 0.03 0.03
0.05 0.05 0.05 0.07 0.06 0.06 0.07 0.09 0.11 0.10 0.09 0.12 0.14 0.14 0.14 0.16 0.15 0.15 0.20 0.24 0.24 0.25 0.24 0.29 0.32 0.30 0.28 0.29 0.30 0.25 0.21 0.17 0.13 0.11 0.08 0.06 0.04 0.03
0.04 0.04 0.03 0.04 0.04 0.04 0.05 0.08 0.13 0.11 0.08 0.10 0.11 0.13 0.16 0.16 0.19 0.20 0.22 0.25 0.29 0.30 0.27 0.26 0.30 0.33 0.36 0.35 0.33 0.30 0.25 0.21 0.17 0.13 0.09 0.06 0.04 0.03
0.04 0.05 0.04 0.03 0.03 0.04 0.05 0.07 0.12 0.14 0.10 0.08 0.07 0.08 0.10 0.12 0.15 0.17 0.20 0.22 0.23 0.28 0.28 0.25 0.27 0.31 0.39 0.39 0.32 0.27 0.24 0.22 0.19 0.14 0.10 0.07 0.04 0.03
0.02 0.04 0.04 0.02 0.02 0.03 0.04 0.05 0.07 0.09 0.11 0.10 0.09 0.09 0.11 0.13 0.14 0.15 0.19 0.21 0.21 0.19 0.20 0.21 0.25 0.24 0.25 0.29 0.29 0.25 0.19 0.17 0.15 0.13 0.11 0.08 0.05 0.03
0.02 0.02 0.02 0.01 0.01 0.01 0.02 0.03 0.03 0.04 0.08 0.10 0.11 0.12 0.15 0.16 0.17 0.19 0.22 0.23 0.20 0.20 0.20 0.18 0.19 0.19 0.18 0.20 0.22 0.23 0.20 0.16 0.13 0.11 0.09 0.08 0.06 0.04
0.01 0.00 0.00 0.00 0.00 0.01 0.01 0.01 0.02 0.07 0.10 0.10 0.12 0.16 0.19 0.23 0.21 0.21 0.27 0.31 0.30 0.26 0.25 0.22 0.19 0.19 0.18 0.17 0.17 0.17 0.18 0.17 0.12 0.09 0.08 0.06 0.04 0.03
0.01 0.01 0.01 0.01 0.00 0.01 0.01 0.02 0.04 0.07 0.09 0.08 0.11 0.16 0.20 0.26 0.30 0.25 0.23 0.29 0.35 0.39 0.34 0.30 0.24 0.21 0.20 0.17 0.15 0.15 0.12 0.11 0.10 0.07 0.05 0.04 0.03 0.02
0.00 0.01 0.03 0.03 0.03 0.03 0.04 0.04 0.05 0.06 0.06 0.08 0.11 0.15 0.20 0.22 0.28 0.30 0.25 0.23 0.23 0.27 0.31 0.32 0.30 0.27 0.25 0.21 0.16 0.13 0.11 0.09 0.07 0.06 0.04 0.03 0.02 0.01
0.00 0.01 0.02 0.02 0.03 0.04 0.04 0.03 0.04 0.04 0.04 0.05 0.08 0.11 0.16 0.18 0.19 0.24 0.26 0.24 0.21 0.20 0.21 0.22 0.22 0.23 0.24 0.23 0.17 0.11 0.08 0.08 0.06 0.05 0.04 0.03 0.02 0.01
0.00 0.01 0.01 0.01 0.01 0.02 0.03 0.04 0.04 0.04 0.04 0.04 0.05 0.08 0.12 0.14 0.14 0.17 0.21 0.22 0.21 0.19 0.18 0.16 0.14 0.13 0.13 0.12 0.10 0.08 0.06 0.05 0.05 0.04 0.02 0.02 0.01 0.01
0.00 0.01 0.01 0.00 0.01 0.01 0.02 0.03 0.03 0.04 0.03 0.04 0.06 0.07 0.10 0.13 0.14 0.14 0.16 0.18 0.18 0.17 0.16 0.13 0.11 0.09 0.08 0.07 0.06 0.05 0.04 0.03 0.03 0.03 0.02 0.01 0.01 0.01
0.00 0.00 0.00 0.00 0.01 0.01 0.02 0.02 0.02 0.03 0.03 0.04 0.05 0.06 0.07 0.08 0.11 0.14 0.13 0.14 0.14 0.12 0.11 0.10 0.08 0.08 0.06 0.05 0.04 0.03 0.03 0.02 0.02 0.02 0.02 0.02 0.01 0.01
0.00 0.00 0.00 0.00 0.00 0.01 0.01 0.02 0.02 0.02 0.03 0.03 0.04 0.05 0.06 0.06 0.07 0.09 0.09 0.08 0.09 0.09 0.08 0.08 0.07 0.05 0.04 0.04 0.03 0.02 0.01 0.01 0.01 0.01 0.01 0.01 0.01 0.00
0.00 0.00 0.00 0.00 0.00 0.01 0.01 0.02 0.01 0.02 0.03 0.02 0.03 0.04 0.04 0.05 0.06 0.07 0.07 0.05 0.05 0.07 0.08 0.08 0.07 0.05 0.04 0.03 0.02 0.01 0.01 0.01 0.01 0.01 0.01 0.01 0.00 0.00
MSLP
1010.59 1010.44 1010.39 1010.43 1010.52 1010.64 1010.74 1010.80 1010.79 1010.71 1010.58 1010.40 1010.22 1010.07 1009.98 1009.97 1010.05 1010.24 1010.54 1010.93 1011.40 1011.93 1012.50 1013.09 1013.69 1014.28 1014.85 1015.39 1015.90 1016.39 1016.85 1017.29 1017.72 1018.14 1018.56 1018.95 1019.33 1019.67
1010.25 1010.07 1009.99 1010.00 1010.08 1010.19 1010.30 1010.37 1010.39 1010.35 1010.25 1010.11 1009.96 1009.83 1009.73 1009.70 1009.76 1009.90 1010.14 1010.47 1010.88 1011.37 1011.91 1012.49 1013.10 1013.71 1014.31 1014.90 1015.46 1016.00 1016.51 1017.00 1017.46 1017.91 1018.34 1018.75 1019.15 1019.51
1009.98 1009.79 1009.69 1009.67 1009.72 1009.80 1009.88 1009.94 1009.95 1009.92 1009.85 1009.75 1009.63 1009.53 1009.46 1009.45 1009.50 1009.63 1009.83 1010.12 1010.50 1010.94 1011.45 1012.00 1012.60 1013.22 1013.84 1014.46 1015.06 1015.63 1016.18 1016.70 1017.19 1017.66 1018.11 1018.54 1018.95 1019.34
1009.81 1009.62 1009.50 1009.45 1009.44 1009.46 1009.49 1009.49 1009.47 1009.42 1009.36 1009.27 1009.20 1009.14 1009.12 1009.15 1009.24 1009.38 1009.59 1009.87 1010.22 1010.63 1011.10 1011.63 1012.21 1012.82 1013.44 1014.07 1014.68 1015.28 1015.85 1016.39 1016.90 1017.39 1017.86 1018.31 1018.75 1019.17
1009.74 1009.54 1009.40 1009.30 1009.22 1009.16 1009.10 1009.02 1008.93 1008.84 1008.75 1008.68 1008.63 1008.63 1008.68 1008.77 1008.92 1009.11 1009.36 1009.65 1010.00 1010.40 1010.85 1011.35 1011.90 1012.48 1013.09 1013.71 1014.33 1014.93 1015.52 1016.08 1016.61 1017.12 1017.62 1018.09 1018.55 1019.00
1009.71 1009.51 1009.34 1009.18 1009.02 1008.86 1008.68 1008.50 1008.32 1008.15 1008.02 1007.95 1007.93 1007.98 1008.10 1008.28 1008.50 1008.77 1009.08 1009.41 1009.78 1010.18 1010.62 1011.09 1011.61 1012.16 1012.75 1013.35 1013.96 1014.57 1015.17 1015.74 1016.30 1016.84 1017.36 1017.87 1018.36 1018.84
1009.68 1009.47 1009.26 1009.03 1008.78 1008.51 1008.22 1007.91 1007.63 1007.39 1007.21 1007.12 1007.12 1007.22 1007.41 1007.67 1007.98 1008.34 1008.71 1009.10 1009.49 1009.90 1010.34 1010.79 1011.29 1011.81 1012.37 1012.95 1013.56 1014.17 1014.78 1015.38 1015.97 1016.54 1017.10 1017.64 1018.18 1018.69
1009.59 1009.36 1009.11 1008.82 1008.48 1008.10 1007.70 1007.29 1006.91 1006.59 1006.37 1006.26 1006.27 1006.41 1006.66 1006.99 1007.38 1007.81 1008.25 1008.68 1009.11 1009.53 1009.96 1010.41 1010.87 1011.38 1011.92 1012.49 1013.09 1013.71 1014.34 1014.98 1015.61 1016.23 1016.84 1017.43 1018.00 1018.56
1009.42 1009.17 1008.88 1008.53 1008.13 1007.66 1007.17 1006.68 1006.23 1005.86 1005.59 1005.46 1005.48 1005.64 1005.93 1006.31 1006.75 1007.23 1007.71 1008.17 1008.62 1009.05 1009.48 1009.91 1010.36 1010.85 1011.38 1011.96 1012.57 1013.22 1013.88 1014.56 1015.24 1015.92 1016.58 1017.22 1017.84 1018.43
1009.20 1008.93 1008.60 1008.22 1007.76 1007.25 1006.71 1006.17 1005.68 1005.28 1004.99 1004.85 1004.87 1005.04 1005.33 1005.72 1006.18 1006.66 1007.15 1007.62 1008.06 1008.48 1008.90 1009.32 1009.77 1010.26 1010.79 1011.38 1012.02 1012.70 1013.42 1014.15 1014.88 1015.61 1016.33 1017.02 1017.68 1018.31
1008.97 1008.68 1008.34 1007.94 1007.47 1006.94 1006.39 1005.85 1005.35 1004.94 1004.66 1004.51 1004.52 1004.67 1004.94 1005.31 1005.73 1006.18 1006.63 1007.07 1007.48 1007.88 1008.28 1008.69 1009.14 1009.63 1010.19 1010.81 1011.49 1012.21 1012.98 1013.76 1014.55 1015.34 1016.10 1016.83 1017.52 1018.17
1008.80 1008.50 1008.16 1007.76 1007.30 1006.79 1006.27 1005.75 1005.28 1004.90 1004.62 1004.47 1004.46 1004.57 1004.80 1005.10 1005.46 1005.84 1006.22 1006.59 1006.95 1007.31 1007.67 1008.07 1008.52 1009.04 1009.62 1010.28 1011.00 1011.78 1012.59 1013.42 1014.26 1015.08 1015.87 1016.62 1017.33 1017.98
1008.71 1008.42 1008.09 1007.71 1007.29 1006.82 1006.35 1005.88 1005.46 1005.11 1004.85 1004.70 1004.66 1004.73 1004.88 1005.10 1005.37 1005.65 1005.93 1006.22 1006.51 1006.82 1007.15 1007.54 1007.99 1008.52 1009.14 1009.83 1010.59 1011.41 1012.26 1013.13 1014.00 1014.83 1015.64 1016.39 1017.08 1017.72
1008.70 1008.43 1008.13 1007.79 1007.41 1007.00 1006.58 1006.18 1005.81 1005.50 1005.26 1005.11 1005.04 1005.06 1005.14 1005.26 1005.42 1005.60 1005.79 1005.98 1006.20 1006.45 1006.76 1007.13 1007.58 1008.12 1008.76 1009.48 1010.27 1011.12 1011.99 1012.87 1013.74 1014.58 1015.36 1016.09 1016.75 1017.35
1008.71 1008.48 1008.22 1007.91 1007.58 1007.22 1006.86 1006.52 1006.21 1005.94 1005.72 1005.57 1005.48 1005.45 1005.46 1005.51 1005.57 1005.66 1005.75 1005.87 1006.03 1006.23 1006.50 1006.86 1007.30 1007.85 1008.49 1009.22 1010.03 1010.87 1011.75 1012.62 1013.47 1014.27 1015.03 1015.71 1016.33 1016.88
1008.68 1008.48 1008.25 1007.98 1007.69 1007.39 1007.08 1006.79 1006.52 1006.29 1006.10 1005.96 1005.86 1005.80 1005.76 1005.75 1005.76 1005.77 1005.81 1005.87 1005.98 1006.15 1006.39 1006.73 1007.16 1007.70 1008.33 1009.05 1009.83 1010.66 1011.50 1012.34 1013.15 1013.91 1014.61 1015.24 1015.81 1016.30
1008.50 1008.34 1008.14 1007.91 1007.65 1007.38 1007.11 1006.86 1006.64 1006.44 1006.28 1006.16 1006.07 1006.01 1005.97 1005.94 1005.92 1005.91 1005.92 1005.96 1006.05 1006.20 1006.42 1006.73 1007.14 1007.65 1008.25 1008.93 1009.67 1010.45 1011.24 1012.02 1012.77 1013.47 1014.12 1014.69 1015.21 1015.66
1008.13 1008.00 1007.83 1007.62 1007.38 1007.14 1006.91 1006.69 1006.50 1006.34 1006.22 1006.13 1006.08 1006.05 1006.03 1006.03 1006.03 1006.04 1006.07 1006.12 1006.21 1006.35 1006.56 1006.85 1007.23 1007.69 1008.23 1008.85 1009.52 1010.22 1010.94 1011.65 1012.33 1012.97 1013.56 1014.09 1014.56 1014.98
1007.58 1007.47 1007.32 1007.12 1006.91 1006.68 1006.47 1006.28 1006.12 1006.00 1005.93 1005.89 1005.89 1005.92 1005.97 1006.02 1006.08 1006.15 1006.22 1006.30 1006.42 1006.57 1006.77 1007.04 1007.37 1007.78 1008.25 1008.78 1009.36 1009.98 1010.61 1011.24 1011.85 1012.44 1012.98 1013.47 1013.92 1014.31
1006.93 1006.82 1006.67 1006.49 1006.28 1006.07 1005.87 1005.70 1005.58 1005.50 1005.47 1005.50 1005.56 1005.66 1005.79 1005.92 1006.06 1006.20 1006.34 1006.48 1006.63 1006.80 1007.00 1007.24 1007.53 1007.88 1008.27 1008.72 1009.21 1009.73 1010.28 1010.83 1011.37 1011.90 1012.40 1012.87 1013.31 1013.70
1006.28 1006.17 1006.01 1005.82 1005.61 1005.41 1005.22 1005.07 1004.97 1004.93 1004.94 1005.02 1005.15 1005.32 1005.51 1005.73 1005.95 1006.16 1006.37 1006.57 1006.77 1006.97 1007.17 1007.40 1007.66 1007.95 1008.28 1008.64 1009.05 1009.49 1009.95 1010.43 1010.91 1011.39 1011.86 1012.32 1012.74 1013.14
1005.77 1005.63 1005.45 1005.25 1005.03 1004.82 1004.64 1004.49 1004.40 1004.37 1004.42 1004.52 1004.69 1004.91 1005.16 1005.43 1005.72 1006.00 1006.27 1006.52 1006.76 1006.99 1007.22 1007.45 1007.68 1007.94 1008.22 1008.53 1008.87 1009.24 1009.64 1010.05 1010.49 1010.93 1011.37 1011.81 1012.23 1012.63
1005.49 1005.31 1005.09 1004.86 1004.63 1004.40 1004.20 1004.05 1003.95 1003.91 1003.95 1004.05 1004.22 1004.45 1004.72 1005.02 1005.33 1005.64 1005.95 1006.25 1006.54 1006.80 1007.06 1007.30 1007.55 1007.80 1008.07 1008.35 1008.65 1008.98 1009.33 1009.71 1010.10 1010.51 1010.92 1011.34 1011.75 1012.15
Thickness
5671 5674 5677 5681 5685 5689 5692 5693 5692 5692 5700 5712 5720 5729 5733 5734 5736 5738 5739 5739 5739 5739 5738 5737 5736 5735 5733 5731 5729 5727 5725 5723 5720 5718 5716 5713 5711 5708
5665 5668 5670 5674 5678 5681 5685 5688 5690 5691 5694 5706 5713 5721 5725 5729 5730 5731 5734 5734 5733 5734 5733 5733 5732 5731 5730 5728 5726 5723 5721 5719 5716 5714 5711 5709 5707 5704
5659 5661 5664 5668 5670 5674 5678 5681 5684 5687 5689 5698 5706 5712 5716 5720 5722 5725 5728 5728 5728 5728 5729 5728 5728 5727 5726 5724 5722 5719 5717 5715 5712 5710 5707 5705 5703 5700
5652 5654 5657 5661 5663 5666 5670 5674 5677 5682 5684 5687 5695 5701 5706 5711 5714 5717 5721 5723 5723 5724 5724 5723 5723 5722 5721 5720 5718 5715 5713 5711 5708 5706 5703 5700 5698 5695
5645 5647 5650 5653 5655 5658 5662 5666 5670 5675 5679 5681 5686 5692 5697 5703 5705 5709 5712 5715 5717 5718 5718 5718 5718 5718 5716 5715 5713 5711 5709 5706 5704 5701 5698 5695 5693 5690
5640 5643 5645 5648 5650 5652 5655 5659 5662 5666 5671 5674 5678 5683 5688 5694 5696 5699 5702 5706 5709 5711 5712 5712 5712 5711 5711 5710 5708 5706 5704 5701 5699 5696 5693 5690 5687 5684
5635 5638 5641 5644 5646 5647 5649 5651 5654 5657 5661 5666 5670 5674 5679 5683 5688 5693 5694 5697 5700 5704 5704 5705 5705 5705 5704 5704 5703 5701 5699 5696 5694 5691 5688 5685 5682 5678
5630 5633 5636 5639 5640 5642 5644 5646 5649 5651 5654 5658 5663 5667 5673 5678 5682 5685 5687 5687 5690 5697 5697 5698 5699 5700 5700 5699 5698 5696 5694 5691 5688 5685 5682 5679 5675 5672
5627 5629 5631 5633 5634 5635 5637 5641 5644 5648 5651 5654 5658 5663 5668 5674 5676 5678 5680 5682 5686 5691 5690 5690 5692 5693 5695 5694 5692 5691 5688 5685 5682 5679 5676 5672 5669 5666
5627 5626 5626 5627 5627 5628 5630 5634 5638 5643 5648 5652 5655 5659 5664 5668 5672 5674 5677 5677 5679 5682 5684 5683 5685 5686 5687 5687 5686 5684 5682 5679 5676 5673 5669 5666 5663 5660
5626 5625 5624 5623 5624 5625 5626 5629 5633 5638 5643 5648 5651 5655 5659 5663 5666 5666 5667 5667 5669 5672 5676 5677 5677 5676 5677 5678 5678 5677 5675 5672 5669 5666 5663 5659 5656 5653
5626 5625 5624 5622 5622 5623 5623 5625 5628 5632 5637 5641 5645 5649 5653 5657 5660 5662 5663 5663 5663 5664 5668 5669 5669 5667 5665 5667 5669 5668 5666 5663 5661 5658 5655 5653 5650 5646
5626 5625 5624 5623 5622 5622 5622 5623 5625 5629 5632 5636 5640 5643 5647 5650 5653 5656 5659 5661 5661 5661 5664 5664 5662 5662 5661 5659 5659 5660 5659 5656 5653 5650 5648 5646 5644 5642
5627 5627 5626 5625 5623 5623 5623 5624 5626 5628 5630 5632 5635 5638 5641 5645 5648 5651 5654 5657 5659 5661 5661 5661 5659 5657 5656 5652 5651 5651 5650 5649 5647 5644 5641 5638 5637 5635
5630 5629 5628 5627 5626 5625 5626 5626 5626 5627 5628 5628 5631 5633 5637 5641 5644 5645 5647 5649 5651 5653 5654 5656 5657 5655 5654 5651 5649 5647 5644 5641 5641 5639 5636 5634 5632 5630
5632 5631 5630 5630 5627 5626 5626 5626 5626 5626 5627 5627 5628 5630 5633 5635 5638 5640 5640 5641 5642 5643 5645 5648 5650 5650 5648 5647 5646 5643 5641 5639 5637 5635 5633 5631 5628 5627
5630 5630 5631 5631 5629 5628 5628 5628 5627 5626 5626 5626 5626 5627 5628 5629 5631 5633 5634 5634 5635 5636 5636 5638 5640 5642 5643 5642 5638 5637 5636 5634 5633 5632 5629 5627 5626 5625
5629 5628 5629 5630 5630 5629 5627 5627 5627 5626 5625 5624 5624 5624 5624 5624 5625 5626 5627 5628 5628 5629 5630 5630 5631 5631 5630 5629 5633 5633 5631 5630 5629 5627 5626 5624 5623 5623
5628 5628 5629 5630 5630 5630 5628 5627 5626 5626 5625 5623 5622 5622 5621 5621 5620 5621 5621 5622 5623 5623 5624 5625 5625 5627 5626 5625 5624 5627 5628 5626 5624 5623 5623 5622 5622 5622
5630 5630 5631 5631 5631 5630 5629 5627 5626 5625 5624 5622 5621 5620 5619 5618 5618 5618 5618 5618 5618 5618 5618 5619 5621 5623 5625 5624 5622 5622 5623 5623 5622 5620 5619 5618 5618 5618
5632 5632 5632 5632 5631 5630 5629 5628 5626 5625 5623 5622 5620 5619 5618 5617 5616 5616 5615 5615 5615 5615 5615 5616 5618 5620 5621 5620 5619 5617 5617 5619 5620 5619 5616 5614 5612 5612
5631 5631 5632 5632 5631 5630 5629 5627 5625 5624 5623 5621 5620 5618 5617 5616 5615 5615 5614 5614 5613 5613 5614 5613 5614 5615 5616 5616 5616 5615 5613 5612 5613 5615 5615 5616 5614 5613
5628 5629 5630 5630 5629 5628 5626 5625 5624 5623 5622 5621 5620 5619 5617 5616 5615 5614 5613 5612 5612 5611 5611 5609 5609 5610 5612 5613 5613 5612 5611 5609 5608 5607 5608 5611 5613 5614